RYR81SV EGSS-EIDW

Flight info

Callsign RYR81SV
Flight time N/A
Altitude 24000
Route NUGBO M183 SILVA/N0415F360 P86 DIDZA N14 OKSAW DCT BIBPE DCT OKTAD DCT MEDOG DCT KRAGY DCT PEMOB M17 VATRY VATRY4L
Aircraft B38M/M-SADE3FGILRWYSB1/LB1

Departure

Time 2026-05-06 21:59
Airport London Stansted Airport (EGSS)

Arrival

Time N/A
Airport Dublin Airport (EIDW)
Time Latitude Longitude Altitude Speed Heading
2026-05-06 21:21 51.89187 0.26047 355 ft 0 kts 42°
2026-05-06 21:46 51.89186 0.26047 351 ft 0 kts 42°
2026-05-06 21:46 51.89176 0.26031 351 ft 3 kts 43°
2026-05-06 21:46 51.89167 0.26017 361 ft 3 kts 48°
2026-05-06 21:46 51.89157 0.25991 356 ft 3 kts 78°
2026-05-06 21:47 51.89156 0.25963 357 ft 1 kts 96°
2026-05-06 21:47 51.89158 0.25943 357 ft 3 kts 87°
2026-05-06 21:47 51.89154 0.25918 356 ft 3 kts 42°
2026-05-06 21:47 51.89145 0.25911 358 ft 3 kts 330°
2026-05-06 21:48 51.89138 0.25922 355 ft 2 kts 313°
2026-05-06 21:48 51.89127 0.25940 355 ft 1 kts 313°
2026-05-06 21:48 51.89126 0.25942 356 ft 1 kts 313°
2026-05-06 21:51 51.89143 0.25912 357 ft 10 kts 313°
2026-05-06 21:51 51.89202 0.25810 355 ft 11 kts 313°
2026-05-06 21:51 51.89251 0.25724 359 ft 9 kts 313°
2026-05-06 21:51 51.89297 0.25645 351 ft 9 kts 313°
2026-05-06 21:52 51.89339 0.25554 354 ft 11 kts 281°
2026-05-06 21:52 51.89281 0.25435 355 ft 20 kts 223°
2026-05-06 21:52 51.89159 0.25252 353 ft 27 kts 223°
2026-05-06 21:52 51.89018 0.25040 357 ft 28 kts 223°
2026-05-06 21:53 51.88881 0.24834 355 ft 28 kts 223°
2026-05-06 21:53 51.88752 0.24639 354 ft 24 kts 223°
2026-05-06 21:53 51.88620 0.24441 358 ft 28 kts 223°
2026-05-06 21:53 51.88477 0.24228 355 ft 27 kts 223°
2026-05-06 21:54 51.88345 0.24030 353 ft 26 kts 223°
2026-05-06 21:54 51.88209 0.23824 355 ft 28 kts 222°
2026-05-06 21:54 51.88072 0.23620 355 ft 25 kts 223°
2026-05-06 21:54 51.87935 0.23413 356 ft 27 kts 221°
2026-05-06 21:55 51.87871 0.23286 354 ft 11 kts 270°
2026-05-06 21:55 51.87918 0.23168 353 ft 14 kts 296°
2026-05-06 21:55 51.87869 0.23019 351 ft 19 kts 224°
2026-05-06 21:55 51.87776 0.22878 355 ft 17 kts 223°
2026-05-06 21:56 51.87680 0.22733 356 ft 21 kts 223°
2026-05-06 21:56 51.87563 0.22558 358 ft 23 kts 222°
2026-05-06 21:56 51.87452 0.22396 350 ft 21 kts 222°
2026-05-06 21:56 51.87401 0.22234 339 ft 16 kts 280°
2026-05-06 21:57 51.87469 0.22085 333 ft 16 kts 313°
2026-05-06 21:57 51.87529 0.22020 336 ft 7 kts 27°
2026-05-06 21:57 51.87546 0.22047 337 ft 0 kts 43°
2026-05-06 21:58 51.87549 0.22052 334 ft 5 kts 43°
2026-05-06 21:58 51.87771 0.22382 349 ft 88 kts 43°
2026-05-06 21:58 51.88416 0.23351 415 ft 154 kts 41°
2026-05-06 21:59 51.89220 0.24585 1245 ft 164 kts 43°
2026-05-06 21:59 51.90070 0.25864 2271 ft 170 kts 44°
2026-05-06 21:59 51.90975 0.27227 3132 ft 190 kts 44°
2026-05-06 21:59 51.91985 0.28710 4144 ft 201 kts 37°
2026-05-06 22:00 51.93309 0.29602 5005 ft 221 kts
2026-05-06 22:00 51.94895 0.29355 5854 ft 243 kts 338°
2026-05-06 22:00 51.96248 0.27596 6680 ft 263 kts 303°
2026-05-06 22:00 51.96831 0.24735 7471 ft 275 kts 272°
2026-05-06 22:01 51.96820 0.21637 8477 ft 276 kts 271°
2026-05-06 22:01 51.96867 0.18550 9765 ft 278 kts 272°
2026-05-06 22:01 51.96921 0.15380 10705 ft 288 kts 272°
2026-05-06 22:01 51.96983 0.12065 11536 ft 300 kts 272°
2026-05-06 22:02 51.97042 0.08662 12596 ft 304 kts 272°
2026-05-06 22:02 51.97097 0.05203 13682 ft 309 kts 272°
2026-05-06 22:02 51.97151 0.01696 14659 ft 314 kts 272°
2026-05-06 22:02 51.97203 -0.01873 15625 ft 319 kts 272°
2026-05-06 22:03 51.97254 -0.05501 16439 ft 329 kts 271°
2026-05-06 22:03 51.96994 -0.09202 17377 ft 333 kts 258°
2026-05-06 22:03 51.96480 -0.12898 18292 ft 339 kts 258°
2026-05-06 22:03 51.95966 -0.16652 19070 ft 343 kts 258°
2026-05-06 22:04 51.95447 -0.20445 19875 ft 347 kts 258°
2026-05-06 22:04 51.94932 -0.24204 20627 ft 351 kts 258°
2026-05-06 22:04 51.94401 -0.28072 21385 ft 355 kts 258°
2026-05-06 22:04 51.93861 -0.31996 22141 ft 359 kts 258°
2026-05-06 22:05 51.93315 -0.35952 22889 ft 363 kts 258°
2026-05-06 22:05 51.92761 -0.39959 23622 ft 367 kts 258°
2026-05-06 22:05 51.92200 -0.43994 24261 ft 370 kts 258°
2026-05-06 22:05 51.91631 -0.48086 24919 ft 373 kts 258°
2026-05-06 22:06 51.91058 -0.52195 25561 ft 376 kts 258°
2026-05-06 22:06 51.90479 -0.56328 26197 ft 379 kts 258°
2026-05-06 22:06 51.89893 -0.60505 26823 ft 382 kts 258°
2026-05-06 22:06 51.89302 -0.64708 27436 ft 385 kts 258°
2026-05-06 22:07 51.88704 -0.68948 28041 ft 388 kts 258°
2026-05-06 22:07 51.88101 -0.73211 28634 ft 390 kts 257°
2026-05-06 22:07 51.87492 -0.77504 29209 ft 393 kts 257°
2026-05-06 22:07 51.86876 -0.81829 29772 ft 397 kts 257°
2026-05-06 22:08 51.86252 -0.86201 30286 ft 400 kts 257°
2026-05-06 22:08 51.85631 -0.90542 30745 ft 403 kts 257°
2026-05-06 22:08 51.84988 -0.95021 31198 ft 406 kts 257°
2026-05-06 22:08 51.84357 -0.99406 31629 ft 409 kts 257°
2026-05-06 22:09 51.83698 -1.03970 32007 ft 414 kts 257°
2026-05-06 22:09 51.83049 -1.08453 32433 ft 417 kts 257°
2026-05-06 22:09 51.82376 -1.13091 32874 ft 420 kts 257°
2026-05-06 22:09 51.81705 -1.17697 33287 ft 423 kts 257°
2026-05-06 22:10 51.81037 -1.22266 33785 ft 423 kts 257°
2026-05-06 22:10 51.80361 -1.26879 34310 ft 422 kts 257°
2026-05-06 22:10 51.79683 -1.31492 34773 ft 422 kts 257°
2026-05-06 22:10 51.79004 -1.36104 35265 ft 421 kts 257°
2026-05-06 22:11 51.78323 -1.40709 35671 ft 422 kts 257°
2026-05-06 22:11 51.77642 -1.45306 35995 ft 425 kts 257°
2026-05-06 22:11 51.76537 -1.54636 36022 ft 422 kts 272°
2026-05-06 22:12 51.77010 -1.59276 36055 ft 420 kts 287°
2026-05-06 22:12 51.78123 -1.63651 36056 ft 423 kts 298°
2026-05-06 22:12 51.81000 -1.71910 36049 ft 424 kts 299°
2026-05-06 22:13 51.83895 -1.80275 36045 ft 425 kts 299°
2026-05-06 22:13 51.86779 -1.88621 36034 ft 425 kts 299°
2026-05-06 22:14 51.89645 -1.96996 36032 ft 425 kts 296°
2026-05-06 22:14 51.90601 -2.01501 36041 ft 424 kts 282°
2026-05-06 22:14 51.91317 -2.06151 36017 ft 426 kts 288°
2026-05-06 22:15 51.93491 -2.15019 35987 ft 424 kts 302°
2026-05-06 22:15 51.96450 -2.23324 36012 ft 426 kts 299°
2026-05-06 22:16 51.99344 -2.31703 36037 ft 426 kts 299°
2026-05-06 22:16 52.02230 -2.40092 36042 ft 426 kts 299°
2026-05-06 22:17 52.05111 -2.48491 36033 ft 427 kts 300°
2026-05-06 22:17 52.07997 -2.56938 36038 ft 428 kts 300°
2026-05-06 22:18 52.10868 -2.65398 36036 ft 427 kts 299°
2026-05-06 22:18 52.13726 -2.73887 36037 ft 427 kts 299°
2026-05-06 22:19 52.16573 -2.82368 36035 ft 427 kts 299°
2026-05-06 22:19 52.19422 -2.90883 36034 ft 427 kts 299°
2026-05-06 22:20 52.22261 -2.99398 36024 ft 428 kts 299°
2026-05-06 22:20 52.25099 -3.07939 36031 ft 429 kts 300°
2026-05-06 22:21 52.27925 -3.16477 36026 ft 429 kts 300°
2026-05-06 22:21 52.30753 -3.25048 36022 ft 429 kts 300°
2026-05-06 22:22 52.33568 -3.33608 36025 ft 429 kts 300°
2026-05-06 22:22 52.36386 -3.42210 36019 ft 429 kts 300°
2026-05-06 22:23 52.39196 -3.50813 36014 ft 429 kts 300°
2026-05-06 22:23 52.42005 -3.59447 36021 ft 430 kts 300°
2026-05-06 22:24 52.44811 -3.68102 36019 ft 430 kts 300°
2026-05-06 22:24 52.47608 -3.76755 36019 ft 429 kts 300°
2026-05-06 22:25 52.50391 -3.85402 36013 ft 429 kts 300°
2026-05-06 22:25 52.53168 -3.94060 36019 ft 429 kts 300°
2026-05-06 22:26 52.54547 -3.98368 35893 ft 423 kts 300°
2026-05-06 22:26 52.55911 -4.02634 35316 ft 421 kts 300°
2026-05-06 22:26 52.57273 -4.06903 34584 ft 424 kts 301°
2026-05-06 22:26 52.58624 -4.11149 33933 ft 424 kts 301°
2026-05-06 22:27 52.59988 -4.15446 33290 ft 422 kts 301°
2026-05-06 22:27 52.61356 -4.19763 32750 ft 418 kts 301°
2026-05-06 22:27 52.62676 -4.23933 32248 ft 413 kts 300°
2026-05-06 22:27 52.63986 -4.28078 31722 ft 410 kts 300°
2026-05-06 22:28 52.65306 -4.32260 31181 ft 407 kts 300°
2026-05-06 22:28 52.66605 -4.36384 30655 ft 404 kts 300°
2026-05-06 22:28 52.67893 -4.40480 30139 ft 401 kts 299°
2026-05-06 22:28 52.69168 -4.44539 29560 ft 398 kts 299°
2026-05-06 22:29 52.70431 -4.48570 29037 ft 393 kts 299°
2026-05-06 22:29 52.71677 -4.52551 28543 ft 389 kts 299°
2026-05-06 22:29 52.72908 -4.56492 28081 ft 384 kts 299°
2026-05-06 22:29 52.74126 -4.60398 27615 ft 380 kts 299°
2026-05-06 22:30 52.75328 -4.64256 27168 ft 377 kts 298°
2026-05-06 22:30 52.76519 -4.68087 26721 ft 373 kts 298°
2026-05-06 22:30 52.77697 -4.71883 26279 ft 370 kts 298°
2026-05-06 22:30 52.78866 -4.75655 25849 ft 367 kts 298°
2026-05-06 22:31 52.80024 -4.79395 25433 ft 364 kts 298°
2026-05-06 22:31 52.81170 -4.83107 25009 ft 362 kts 298°
2026-05-06 22:31 52.82310 -4.86799 24585 ft 359 kts 297°
2026-05-06 22:31 52.83059 -4.89231 24324 ft 358 kts 297°
2026-05-06 22:32 52.84183 -4.92886 23921 ft 355 kts 297°
2026-05-06 22:32 52.85297 -4.96512 23512 ft 353 kts 297°
2026-05-06 22:32 52.86406 -5.00125 23058 ft 351 kts 297°
2026-05-06 22:32 52.87502 -5.03703 22639 ft 347 kts 297°
2026-05-06 22:33 52.88588 -5.07252 22237 ft 343 kts 297°
2026-05-06 22:33 52.89656 -5.10749 21862 ft 339 kts 297°
2026-05-06 22:33 52.90717 -5.14229 21497 ft 336 kts 297°
2026-05-06 22:33 52.91763 -5.17664 21123 ft 332 kts 297°
2026-05-06 22:34 52.92797 -5.21063 20755 ft 329 kts 296°
2026-05-06 22:34 52.93821 -5.24435 20394 ft 326 kts 296°
2026-05-06 22:34 52.94838 -5.27788 20036 ft 323 kts 296°
2026-05-06 22:34 52.95843 -5.31109 19671 ft 321 kts 296°
2026-05-06 22:35 52.96840 -5.34403 19319 ft 318 kts 296°
2026-05-06 22:35 52.97827 -5.37672 18970 ft 316 kts 296°
2026-05-06 22:35 52.98805 -5.40916 18621 ft 313 kts 296°
2026-05-06 22:35 52.99776 -5.44140 18269 ft 311 kts 296°
2026-05-06 22:36 53.00739 -5.47342 17875 ft 309 kts 296°
2026-05-06 22:36 53.01693 -5.50518 17505 ft 306 kts 295°
2026-05-06 22:36 53.02636 -5.53661 17159 ft 303 kts 295°
2026-05-06 22:36 53.03571 -5.56780 16829 ft 302 kts 295°
2026-05-06 22:37 53.04513 -5.59929 16472 ft 307 kts 295°
2026-05-06 22:37 53.05467 -5.63124 16121 ft 309 kts 295°
2026-05-06 22:37 53.06405 -5.66266 15778 ft 309 kts 295°
2026-05-06 22:37 53.07376 -5.69522 15424 ft 306 kts 295°
2026-05-06 22:38 53.08302 -5.72635 15090 ft 303 kts 295°
2026-05-06 22:38 53.09228 -5.75750 14744 ft 300 kts 295°
2026-05-06 22:38 53.10150 -5.78858 14412 ft 298 kts 294°
2026-05-06 22:38 53.11079 -5.81990 14072 ft 296 kts 294°
2026-05-06 22:39 53.11972 -5.85008 13732 ft 293 kts 294°
2026-05-06 22:39 53.12869 -5.88041 13363 ft 291 kts 294°
2026-05-06 22:39 53.13760 -5.91056 13004 ft 288 kts 294°
2026-05-06 22:39 53.14640 -5.94041 12666 ft 285 kts 294°
2026-05-06 22:40 53.15508 -5.96986 12346 ft 282 kts 294°
2026-05-06 22:40 53.16369 -5.99912 12022 ft 282 kts 294°
2026-05-06 22:40 53.17241 -6.02880 11704 ft 288 kts 294°
2026-05-06 22:40 53.18126 -6.05896 11379 ft 291 kts 294°
2026-05-06 22:41 53.19898 -6.11947 10711 ft 291 kts 294°
2026-05-06 22:41 53.20786 -6.14983 10381 ft 291 kts 294°
2026-05-06 22:41 53.21651 -6.17946 10096 ft 279 kts 294°
2026-05-06 22:42 53.22487 -6.20814 9884 ft 273 kts 294°
2026-05-06 22:42 53.23314 -6.23652 9542 ft 272 kts 294°
2026-05-06 22:42 53.24138 -6.26486 9207 ft 270 kts 294°
2026-05-06 22:42 53.24953 -6.29288 8892 ft 268 kts 294°
2026-05-06 22:43 53.25756 -6.32058 8590 ft 265 kts 294°
2026-05-06 22:43 53.26564 -6.34846 8285 ft 269 kts 294°
2026-05-06 22:43 53.27387 -6.37686 7984 ft 273 kts 294°
2026-05-06 22:43 53.28215 -6.40549 7675 ft 274 kts 294°
2026-05-06 22:44 53.29041 -6.43410 7359 ft 273 kts 294°
2026-05-06 22:44 53.29862 -6.46257 7060 ft 271 kts 294°
2026-05-06 22:44 53.30671 -6.49063 6755 ft 268 kts 294°
2026-05-06 22:44 53.31474 -6.51851 6457 ft 265 kts 294°
2026-05-06 22:45 53.32268 -6.54616 6120 ft 263 kts 294°
2026-05-06 22:45 53.33089 -6.57310 5929 ft 256 kts 302°
2026-05-06 22:45 53.34343 -6.59403 5652 ft 256 kts 325°
2026-05-06 22:45 53.35864 -6.60793 5405 ft 247 kts 330°